Location: Bowden
(51.9167°N, 114.0333°W)
Time: 10:37:31
(UTC+00:00)

Envisat - Pass Details

Date: 13 December 2021
Orbit: 764 x 766 km, 98.2° (Epoch: 28 January)

Event Time Altitude Azimuth Distance (km) Brightness Sun altitude
Rises 13:15:15 0° 12° (NNE) 3,248 6.3 -20.3°
Reaches altitude 10° 13:17:35 10° 9° (N) 2,317 5.4 -20.0°
Maximum altitude 13:22:36 60° 291° (WNW) 880 2.9 -19.2°
Drops below altitude 10° 13:27:35 10° 212° (SSW) 2,299 5.3 -18.5°
Sets 13:29:54 0° 209° (SSW) 3,221 6.1 -18.1°
